Die Wichtigste » das Wetter in Italien » Friaul-Julisch Venetien » Grado » Meteograms hourly weather

Grado, Meteogramm

Grado: stundensatz wetter
Donnerstag, 03 September
Zeit Der Niederschlag Die Temperatur Fühlt Der Druck Die Feuchtigkeit Der Wind
03:00 0.01 mm +19.3° +20.3° 759 mmHg 75% 3 m/S, O
04:00 0.01 mm +19.1° +20.1° 759 mmHg 76% 3 m/S, O
05:00 0 mm +19.6° +20.8° 759 mmHg 76% 3 m/S, O
06:00 0 mm +20.1° +21.3° 759 mmHg 75% 3 m/S, O
07:00 0 mm +20.7° +22° 759 mmHg 75% 3 m/S, O
08:00 0.01 mm +22.7° +23.9° 759 mmHg 67% 3 m/S, SO
09:00 0.01 mm +24.7° +25.7° 759 mmHg 59% 3 m/S, S
10:00 0.01 mm +26.7° +27.4° 759 mmHg 51% 3 m/S, S
11:00 0.01 mm +27.3° +28° 759 mmHg 49% 4 m/S, S
12:00 0.01 mm +28° +28.5° 759 mmHg 46% 4 m/S, S
13:00 0.01 mm +28.7° +29.1° 758 mmHg 44% 4 m/S, S
14:00 0.08 mm +28.1° +28.8° 758 mmHg 48% 4 m/S, S
15:00 0.08 mm +27.5° +28.3° 758 mmHg 51% 3 m/S, S
16:00 0.08 mm +26.9° +28° 758 mmHg 55% 3 m/S, S
17:00 0.05 mm +24.8° +26.1° 758 mmHg 64% 3 m/S, S
18:00 0.05 mm +22.6° +24.1° 758 mmHg 72% 3 m/S, S
19:00 0.05 mm +20.5° +22° 758 mmHg 80% 3 m/S, S
20:00 0.25 mm +20° +21.6° 758 mmHg 81% 3 m/S, SO
21:00 0.25 mm +19.6° +21.1° 759 mmHg 81% 3 m/S, SO
22:00 0.25 mm +19.2° +20.6° 759 mmHg 81% 3 m/S, SO
23:00 0.38 mm +18.9° +20.3° 759 mmHg 82% 3 m/S, O
Freitag, 04 September
Zeit Der Niederschlag Die Temperatur Fühlt Der Druck Die Feuchtigkeit Der Wind
00:00 0.38 mm +18.6° +20° 759 mmHg 83% 3 m/S, O
01:00 0.38 mm +18.4° +19.7° 759 mmHg 84% 4 m/S, NO
02:00 0.25 mm +18.2° +19.6° 759 mmHg 85% 3 m/S, NO
03:00 0.25 mm +18° +19.4° 759 mmHg 86% 3 m/S, NO
04:00 0.25 mm +17.9° +19.3° 759 mmHg 87% 3 m/S, NO
05:00 0.31 mm +18.5° +20° 760 mmHg 86% 3 m/S, NO
06:00 0.31 mm +19.1° +20.6° 760 mmHg 84% 3 m/S, NO
07:00 0.31 mm +19.7° +21.3° 760 mmHg 83% 2 m/S, NO
08:00 0.48 mm +21.6° +23.2° 760 mmHg 76% 2 m/S, O
09:00 0.48 mm +23.5° +25.1° 760 mmHg 70% 2 m/S, SO
10:00 0.48 mm +25.5° +27° 760 mmHg 64% 2 m/S, S
11:00 0.55 mm +25.8° +27.2° 760 mmHg 63% 2 m/S, S
12:00 0.55 mm +26° +27.6° 760 mmHg 63% 3 m/S, S
13:00 0.55 mm +26.3° +27.9° 759 mmHg 63% 3 m/S, S
14:00 0.76 mm +25.9° +27.6° 759 mmHg 66% 3 m/S, S
15:00 0.76 mm +25.4° +27.3° 759 mmHg 69% 3 m/S, S
16:00 0.76 mm +24.9° +26.9° 759 mmHg 72% 3 m/S, S
17:00 1.18 mm +23.2° +25.2° 758 mmHg 78% 3 m/S, S
18:00 1.18 mm +21.5° +23.4° 758 mmHg 83% 3 m/S, S
19:00 1.18 mm +19.8° +21.6° 758 mmHg 88% 3 m/S, SO
20:00 1.15 mm +19.5° +21.4° 758 mmHg 89% 3 m/S, SO
21:00 1.15 mm +19.2° +21.1° 759 mmHg 90% 3 m/S, SO
22:00 1.15 mm +19° +20.7° 759 mmHg 90% 3 m/S, O
23:00 1.21 mm +18.7° +20.4° 758 mmHg 91% 3 m/S, O
Samstag, 05 September
Zeit Der Niederschlag Die Temperatur Fühlt Der Druck Die Feuchtigkeit Der Wind
00:00 1.21 mm +18.4° +20.1° 758 mmHg 92% 4 m/S, O
01:00 1.21 mm +18° +19.8° 758 mmHg 93% 4 m/S, O
02:00 0.7 mm +17.9° +19.6° 758 mmHg 93% 3 m/S, O

Auch

Meteograms hourly weather Die Wetterkarte Wetterübersicht
Meteograms hourly weather Die Wetterkarte Wetterübersicht

Market


Wetter widget


 
das Wetter in Österreich:
Über das Projekt
© meteoprog.at 2003-2015.
Meteoprog.ua - погода в Украине 0.0610
sitemap